Tracking 35331 objects as of 16-Sep-2026
HD Live streaming from Space Station
objects crossing your sky now

COSMOS 1484 DEB


COSMOS 1484 DEB is no longer on orbit


NORAD ID: 23540
Int'l Code: 1983-075BD
Launch date: July 24, 1983
Source: Commonwealth of Independent States (former USSR) (CIS)
Launch site: TYURATAM MISSILE AND SPACE COMPLEX (TTMTR)
Decay date: 1999-07-08

Note: This is SATELLITE DEBRIS
Your satellite tracking list
Your tracking list is empty




NASA's NSSDC Master Catalog

Two Line Element Set (TLE):
1 23540U 83075BD  99189.33948552  .04173733  00000-0  54007-2 0  9998
2 23540 096.9999 327.6364 0040192 315.7266 044.1393 16.05359259307496
Source of the keplerian elements: AFSPC